Location: Huntsville
(41.2590°N, 111.7678°W)
Time: 20:44:59
(UTC+00:00)

Courier 1B Rocket - Pass Details

Date: 21 June 2021
Orbit: 920 x 1202 km, 28.2° (Epoch: 01 August)

Event Time Altitude Azimuth Distance (km) Brightness Sun altitude
Rises 00:36:52 0° 212° (SSW) 3,913 8.4 24.7°
Reaches altitude 10° 00:41:12 10° 189° (S) 2,893 7.5 23.9°
Maximum altitude 00:44:40 14° 159° (SSE) 2,536 7.0 23.2°
Drops below altitude 10° 00:48:02 10° 129° (SE) 2,791 7.0 22.6°
Sets 00:52:04 0° 106° (ESE) 3,684 7.4 21.9°
